Regional Weather Roundup
Issued by NWS

Home | Current Version | Previous Version | Graphics & Text | Print | Product List | Glossary On
Versions: 1 2 3 4 5 6 7 8 9 10 11 12 13 14 15 16 17 18 19 20 21 22 23 24 25 26 27 28 29 30 31 32 33 34 35 36 37 38 39 40 41 42 43 44 45 46 47 48 49 50
000
ASUS43 KIND 120209
RWRIN

WEATHER ROUNDUP FOR INDIANA
NATIONAL WEATHER SERVICE INDIANAPOLIS IN
900 PM EST MON DEC 11 2017

NOTE: "FAIR" INDICATES FEW OR NO CLOUDS BELOW 12,000 FEET WITH NO
SIGNIFICANT WEATHER AND/OR OBSTRUCTIONS TO VISIBILITY.

* - STATION DOES NOT REPORT WEATHER SUCH AS PRECIPITATION OR FOG.

+ - STATION NOT QUALITY CONTROLLED BY THE NATIONAL WEATHER SERVICE.
    USE DATA WITH CAUTION...ESPECIALLY DEWPOINT AND RELATIVE
    HUMIDITY OBSERVATIONS.

INZ001>003-010>013-019-020-120300-
NORTHWEST INDIANA

CITY           SKY/WX    TMP DP  RH WIND       PRES   REMARKS
GARY /AIRPORT/ CLOUDY    34  34 100 NW14      29.77S FOG     WCI  24
KNOX *+        CLOUDY    32  28  86 N9        29.72S WCI  24
LA PORTE +     LGT SNOW  31  29  95 N6        29.74S WCI  25
MICHIGAN CITY+ LGT SNOW  32  32 100 CALM      29.75S
MONTICELLO +   PTCLDY    29  25  85 NW8       29.68R WCI  21
RENSSELAER +   CLOUDY    34  27  75 N5        29.73R WCI  30
VALPARAISO     LGT SNOW  33  31  92 NW5       29.74S FOG     WCI  29

$$

LMZ046-743>745-120300-
SOUTHERN LAKE MICHIGAN

STATION/POSITION TIME  TEMP    WIND        PRES    WAVE
                       AIR SEA DIR/SP/G            HT
                 (UTC) (F)     (DEG/KT/KT) (MB)    (FT)
BURNS HARBOR     0140   35     320/ 13/ 18 1008.1R
MICHIGAN CITY    0140   33     300/  7/  8   N/A

$$

INZ004-005-014>016-021>024-120300-
NORTH CENTRAL INDIANA

CITY           SKY/WX    TMP DP  RH WIND       PRES   REMARKS
ELKHART        LGT SNOW  30  28  93 CALM      29.72S VSB 1
GOSHEN         LGT SNOW  31  27  85 N9        29.71R FOG     WCI  23
LOGANSPORT +   PTCLDY    32  28  86 NW3       29.67R
PERU/GRISSOM   CLOUDY    31  29  93 CALM      29.64S
ROCHESTER +    CLOUDY    32  30  93 N7        29.68R WCI  26
SOUTH BEND     LGT SNOW  29  29 100 N7        29.73S FOG     WCI  22
WARSAW +       CLOUDY    30  28  93 N5        29.68S WCI  25

$$

INZ006>009-017-018-025>027-120300-
NORTHEAST INDIANA

CITY           SKY/WX    TMP DP  RH WIND       PRES   REMARKS
AUBURN +       CLOUDY    30  27  86 CALM      29.68S
FORT WAYNE     CLOUDY    33  28  81 NE3       29.66F
HUNTINGTON +   CLOUDY    31  29  91 CALM      29.65S
KENDALLVILLE + CLOUDY    30  27  86 N8        29.69R WCI  23

$$

INZ028-029-035-036-043>045-051>053-120300-
WEST CENTRAL INDIANA

CITY           SKY/WX    TMP DP  RH WIND       PRES   REMARKS
CRAWFORDSVL +  CLOUDY    38  27  64 W14G23    29.71R WCI  30
GREENCASTLE +  CLOUDY    41  27  56 W12G23    29.74R
LAFAYETTE      CLOUDY    37  27  67 W15G23    29.70R WCI  28
TERRE HAUTE    MOCLDY    42  26  53 W16G26    29.79R

$$

INZ030>032-037>040-046>048-054>057-064-065-120300-
CENTRAL INDIANA

CITY           SKY/WX    TMP DP  RH WIND       PRES   REMARKS
COLUMBUS       MOCLDY    43  23  45 W15       29.73R
FRANKFORT +    PTCLDY    38  28  68 W12       29.69S WCI  30
INDIANAPOLIS   MOCLDY    42  26  53 W16       29.71R
-EAGLE CREEK   CLOUDY    42  25  50 W13       29.69R
KOKOMO +       PTCLDY    34  28  79 W9        29.66S WCI  27
MARION +       PTCLDY    32  27  84 S9        29.64F WCI  24
MT COMFORT *+  MOCLDY    41  30  65 W20G29    29.69R
SHELBYVILLE    MOCLDY    44  25  47 W18G32    29.70R
ZIONSVILLE +   CLOUDY    39  26  59 W15G22    29.69R WCI  30

$$

INZ033-034-041-042-049-050-058-059-120300-
EAST CENTRAL INDIANA

CITY           SKY/WX    TMP DP  RH WIND       PRES   REMARKS
MUNCIE         CLEAR     39  28  64 SW8       29.64F WCI  33
RICHMOND +     PTCLDY    36  30  80 W15G21    29.67S WCI  26

$$

INZ060-061-067>069-081>083-085>088-120300-
SOUTHWEST INDIANA

CITY           SKY/WX    TMP DP  RH WIND       PRES   REMARKS
EVANSVILLE     CLOUDY    49  29  46 NW12G23   29.85R
HUNTINGBURG +  CLOUDY    48  29  47 W21G35    29.82R
WASHINGTON +   MOCLDY    46  28  50 W24G33    29.81R

$$

INZ062-063-066-070>080-084-089>092-120300-
SOUTH CENTRAL AND SOUTHEAST INDIANA

CITY           SKY/WX    TMP DP  RH WIND       PRES   REMARKS
BEDFORD +      MOCLDY    46  25  42 W13G24    29.76R
BLOOMINGTON    CLOUDY    45  25  45 W14G24    29.75R
MADISON *+     CLEAR     46  27  46 W13G24    29.76R
NORTH VERNON + CLEAR     43  25  49 W17       29.73R
SEYMOUR +      PTCLDY    46  27  46 W18       29.74R

$$




USA.gov is the U.S. government's official web portal to all federal, state and local government web resources and services.